Location: Vancouver
(49.2500°N, 123.1330°W)
Time: 12:46:21
(UTC-07:00)

Iridium 35 - Visible Passes

Search period start: 25 April 2015 00:00
Search period end: 05 May 2015 00:00
Orbit: 776 x 779 km, 86.4° (Epoch: 25 April)

Date Brightness Start Highest point End Pass type
(mag) Time Alt. Az. Time Alt. Az. Time Alt. Az.
25 Apr 7.7 05:03:02 10° SE 05:06:56 22° E 05:10:58 10° NNE visible
26 Apr 8.1 04:31:24 10° E 04:33:43 13° ENE 04:36:17 10° NE visible
28 Apr 7.1 05:02:25 10° SE 05:06:52 30° E 05:11:25 10° NNE visible
29 Apr 7.8 04:30:11 10° ESE 04:33:35 18° ENE 04:37:10 10° NE visible
30 Apr 8.2 03:59:27 10° E 04:00:25 11° ENE 04:01:39 10° ENE visible
01 May 6.5 05:01:59 10° SSE 05:06:49 41° E 05:11:44 10° NNE visible
02 May 7.3 04:29:22 10° SE 04:33:29 25° E 04:37:44 10° NNE visible
03 May 7.8 03:57:30 10° ESE 04:00:15 15° ENE 04:03:13 10° NE visible
04 May 5.8 05:01:44 10° SSE 05:06:50 57° E 05:11:58 10° N visible
